Temp
1 0 0 0 1 1 1 1 1 1 1 2 2 2 2 2 2 2 2 2 2 2 3 3 3 3 4 4 4 4 4 4 4 4 4 4 4 4 4 4 3 2
0 0 0 0 1 1 1 1 1 1 1 1 1 1 1 2 2 2 2 2 2 2 2 2 3 3 3 3 4 4 4 4 4 4 4 4 4 4 4 4 4 3
0 0 0 0 1 1 1 1 1 1 1 1 1 1 1 1 2 2 2 2 2 2 2 2 2 3 3 3 3 4 4 4 4 4 4 4 4 4 4 4 4 3
0 0 0 0 0 1 1 0 0 0 0 0 1 1 1 1 1 2 2 2 2 2 2 3 3 3 3 3 3 3 4 4 4 4 4 4 4 4 4 3 4 4
0 0 0 0 0 0 0 0 0 0 0 0 1 1 1 1 1 1 1 1 2 2 2 2 3 3 3 3 3 3 3 4 4 4 4 4 4 4 4 3 3 3
0 0 0 0 0 0 0 -0 -0 -0 0 0 0 0 1 1 1 1 1 1 1 2 2 2 2 2 3 3 3 3 3 3 4 4 4 4 4 4 4 3 3 3
-0 -0 -0 0 0 -0 -0 -0 -0 -0 -0 -0 0 0 0 1 1 1 1 1 1 1 2 2 2 2 2 3 3 3 3 3 3 4 4 4 4 4 4 4 3 3
-0 -0 -0 -0 -0 -0 -0 -1 -1 -1 -1 -0 -0 -0 0 0 0 1 1 1 1 1 1 1 2 2 2 2 2 3 3 3 3 3 4 4 4 4 4 4 4 3
-0 -0 -0 -0 -0 -1 -1 -1 -1 -1 -1 -1 -0 -0 -0 0 0 0 1 1 1 1 1 1 1 2 2 2 2 2 3 3 3 3 3 3 4 4 4 4 4 3
-1 -1 -0 -0 -1 -1 -1 -1 -1 -1 -1 -1 -1 -0 -0 -0 0 0 0 1 1 1 1 1 1 1 2 2 2 2 2 2 2 2 3 3 3 3 4 4 4 4
-1 -1 -0 -0 -1 -1 -1 -1 -1 -1 -1 -1 -1 -1 -0 -0 -0 0 0 1 1 1 1 1 1 1 1 1 2 2 2 2 2 2 2 2 2 3 3 3 3 3
-1 -1 -0 -1 -1 -1 -1 -1 -1 -1 -1 -1 -1 -1 -1 -0 -0 0 0 0 1 1 1 1 1 1 1 1 1 2 2 2 2 2 2 2 2 2 2 3 3 3
-1 -1 -1 -1 -1 -1 -1 -1 -1 -1 -1 -1 -1 -1 -1 -1 -0 -0 -0 0 0 1 1 1 1 1 1 1 1 1 1 1 1 1 1 1 1 1 1 2 2 3
-1 -0 -1 -1 -1 -1 -1 -1 -1 -1 -1 -1 -1 -1 -1 -1 -1 -0 -0 -0 0 0 1 1 1 1 1 1 1 1 1 1 1 1 1 1 1 1 1 1 1 2
-1 -1 -1 -1 -1 -1 -1 -1 -1 -1 -1 -1 -1 -1 -1 -1 -1 -1 -0 -0 0 0 0 0 0 1 1 1 1 0 0 0 0 1 1 1 1 1 1 0 0 0
-1 -1 -1 -1 -1 -1 -1 -1 -1 -1 -1 -2 -2 -1 -1 -1 -1 -1 -1 -0 -0 -0 -0 0 0 0 0 0 0 0 -0 -0 -0 0 0 0 0 0 1 0 0 -0
-1 -1 -1 -1 -1 -1 -1 -1 -1 -1 -2 -2 -2 -2 -1 -1 -1 -1 -1 -1 -1 -0 -0 -0 -0 -0 -0 -0 -0 -0 -1 -1 -1 -0 -0 -0 -0 0 0 0 0 -0
-1 -1 -1 -2 -1 -1 -2 -2 -2 -2 -2 -2 -2 -2 -2 -1 -1 -1 -1 -1 -1 -1 -1 -0 -0 -1 -1 -1 -1 -1 -1 -1 -1 -1 -1 -1 -1 -1 -0 -0 -0 -0
-1 -2 -2 -2 -2 -2 -2 -2 -2 -2 -2 -2 -2 -2 -2 -2 -2 -2 -1 -1 -1 -1 -1 -1 -1 -1 -1 -1 -1 -1 -1 -1 -1 -1 -1 -1 -1 -1 -1 -1 -0 -0
-2 -2 -2 -2 -2 -2 -2 -3 -3 -3 -3 -3 -3 -2 -2 -2 -2 -2 -2 -2 -2 -2 -2 -2 -2 -2 -2 -2 -2 -2 -2 -2 -2 -2 -1 -1 -1 -1 -1 -1 -1 -1
-2 -2 -2 -2 -3 -3 -3 -3 -3 -3 -3 -3 -3 -3 -2 -2 -2 -2 -2 -2 -2 -2 -2 -2 -2 -2 -2 -2 -2 -2 -2 -2 -2 -2 -2 -2 -1 -1 -1 -1 -1 -1
-2 -2 -3 -3 -3 -4 -4 -4 -4 -4 -3 -3 -3 -3 -3 -3 -3 -3 -3 -3 -3 -2 -2 -2 -2 -2 -2 -2 -2 -2 -2 -2 -2 -2 -2 -1 -1 -1 -1 -1 -1 -0
-2 -3 -3 -3 -4 -4 -4 -4 -4 -4 -4 -4 -4 -3 -3 -3 -3 -3 -3 -3 -3 -3 -3 -2 -2 -2 -2 -2 -2 -2 -2 -2 -2 -1 -1 -1 -1 -1 -1 -1 -1 -0
-3 -3 -4 -4 -4 -5 -5 -5 -5 -5 -5 -4 -4 -3 -3 -4 -4 -3 -3 -3 -3 -3 -3 -3 -3 -3 -3 -3 -3 -3 -2 -2 -2 -1 -1 -1 -1 -1 -1 -0 -0 -0
-3 -4 -5 -5 -5 -5 -5 -5 -5 -5 -5 -4 -4 -4 -4 -4 -4 -4 -4 -3 -3 -3 -3 -3 -3 -3 -3 -3 -3 -3 -3 -2 -2 -2 -2 -2 -2 -2 -2 -1 -1 -0
-5 -5 -5 -5 -5 -5 -5 -5 -5 -5 -4 -4 -4 -4 -4 -4 -4 -4 -4 -3 -3 -3 -3 -4 -4 -4 -4 -4 -4 -3 -3 -3 -3 -3 -3 -3 -3 -3 -2 -2 -2 -1
Height
3097 3097 3097 3097 3097 3097 3097 3097 3097 3097 3097 3096 3096 3096 3096 3096 3096 3096 3096 3095 3095 3095 3095 3095 3095 3096 3096 3097 3097 3097 3097 3098 3099 3100 3101 3101 3101 3102 3103 3104 3106 3107
3095 3095 3095 3095 3095 3094 3094 3094 3094 3094 3094 3094 3094 3094 3094 3093 3093 3093 3093 3093 3093 3093 3093 3093 3093 3093 3093 3092 3093 3093 3094 3094 3095 3095 3096 3097 3097 3098 3099 3100 3101 3102
3093 3092 3092 3092 3092 3092 3092 3092 3092 3091 3091 3091 3091 3091 3091 3091 3090 3090 3090 3090 3090 3090 3090 3090 3090 3090 3090 3089 3089 3089 3089 3090 3091 3091 3091 3092 3093 3094 3095 3096 3096 3097
3090 3090 3090 3089 3089 3089 3089 3089 3089 3089 3089 3089 3089 3088 3088 3088 3088 3088 3087 3087 3087 3087 3086 3086 3086 3087 3086 3086 3085 3085 3085 3086 3086 3087 3087 3088 3088 3089 3090 3091 3092 3093
3088 3087 3087 3087 3087 3086 3087 3087 3087 3086 3086 3086 3086 3086 3085 3085 3085 3085 3085 3084 3084 3083 3083 3083 3082 3082 3082 3082 3082 3081 3081 3082 3082 3082 3082 3083 3084 3084 3085 3086 3087 3088
3085 3085 3085 3084 3084 3084 3084 3084 3084 3083 3083 3083 3083 3083 3082 3082 3082 3082 3081 3081 3081 3080 3080 3079 3079 3078 3078 3077 3077 3077 3078 3078 3078 3078 3077 3078 3079 3080 3081 3081 3082 3083
3082 3082 3082 3081 3081 3081 3081 3081 3080 3080 3080 3080 3079 3079 3079 3079 3079 3079 3078 3078 3078 3077 3076 3075 3075 3074 3074 3073 3073 3072 3073 3073 3074 3073 3073 3073 3074 3075 3076 3077 3077 3078
3079 3079 3079 3078 3078 3078 3078 3077 3077 3077 3077 3076 3076 3076 3075 3075 3075 3075 3074 3074 3074 3074 3073 3072 3071 3070 3070 3069 3068 3068 3068 3068 3069 3069 3069 3068 3069 3070 3071 3072 3073 3073
3076 3076 3075 3075 3075 3074 3074 3074 3073 3073 3073 3072 3072 3072 3071 3071 3070 3070 3070 3070 3070 3069 3069 3068 3067 3066 3065 3064 3064 3064 3064 3064 3064 3064 3064 3064 3064 3065 3066 3067 3067 3068
3072 3072 3072 3071 3071 3071 3070 3070 3069 3069 3069 3068 3068 3068 3067 3066 3065 3065 3065 3065 3065 3064 3064 3063 3062 3061 3060 3060 3060 3059 3059 3059 3059 3059 3059 3059 3059 3060 3060 3061 3061 3063
3069 3069 3068 3068 3068 3067 3066 3066 3066 3065 3065 3064 3064 3063 3063 3062 3061 3060 3059 3059 3059 3059 3058 3058 3057 3056 3055 3055 3055 3055 3055 3055 3054 3054 3054 3053 3054 3054 3055 3055 3055 3056
3066 3066 3065 3065 3064 3064 3063 3062 3062 3061 3061 3060 3060 3059 3058 3058 3057 3055 3054 3053 3053 3053 3052 3052 3052 3051 3050 3050 3050 3049 3049 3049 3049 3049 3048 3048 3048 3049 3049 3050 3050 3050
3063 3063 3062 3061 3061 3060 3059 3059 3058 3057 3057 3056 3056 3055 3054 3053 3052 3051 3049 3048 3047 3047 3046 3046 3046 3045 3045 3044 3044 3044 3044 3044 3043 3043 3043 3043 3043 3043 3044 3044 3044 3044
3059 3059 3058 3058 3057 3056 3055 3055 3054 3053 3053 3052 3051 3050 3049 3048 3046 3045 3044 3043 3042 3042 3040 3040 3039 3039 3039 3039 3039 3039 3038 3037 3037 3037 3037 3036 3037 3038 3038 3038 3038 3039
3055 3054 3054 3054 3053 3052 3052 3051 3051 3050 3049 3048 3047 3045 3044 3043 3042 3040 3039 3038 3037 3036 3035 3034 3033 3033 3034 3034 3033 3033 3032 3031 3031 3031 3030 3030 3030 3031 3032 3032 3033 3033
3051 3051 3051 3050 3050 3049 3048 3048 3047 3047 3046 3044 3043 3041 3039 3038 3037 3035 3034 3033 3031 3030 3029 3028 3028 3028 3028 3028 3028 3027 3026 3026 3025 3025 3024 3024 3024 3024 3025 3026 3027 3027
3048 3048 3048 3047 3046 3046 3045 3044 3044 3043 3041 3040 3038 3036 3034 3033 3031 3030 3029 3027 3025 3024 3024 3023 3022 3022 3022 3022 3022 3021 3020 3020 3019 3019 3018 3017 3017 3017 3018 3019 3020 3021
3045 3045 3044 3044 3043 3042 3041 3040 3039 3038 3037 3035 3033 3031 3029 3028 3027 3025 3023 3022 3020 3019 3018 3017 3017 3017 3017 3017 3016 3015 3014 3013 3013 3013 3012 3011 3011 3011 3011 3012 3013 3014
3041 3041 3040 3039 3039 3038 3037 3036 3035 3033 3032 3030 3028 3026 3024 3023 3022 3020 3018 3016 3015 3013 3012 3012 3011 3011 3011 3011 3010 3009 3008 3007 3006 3006 3006 3005 3005 3004 3004 3004 3005 3006
3037 3037 3036 3035 3035 3034 3032 3032 3030 3029 3027 3025 3023 3021 3019 3018 3016 3014 3012 3011 3009 3008 3007 3006 3006 3006 3006 3005 3003 3003 3002 3000 2999 2999 2998 2998 2998 2998 2997 2997 2997 2997
3033 3033 3032 3031 3031 3029 3028 3027 3026 3024 3022 3020 3017 3015 3014 3013 3010 3008 3007 3005 3004 3002 3001 3001 3000 3000 2999 2998 2997 2996 2995 2994 2992 2991 2991 2990 2990 2990 2990 2989 2989 2989
3030 3029 3028 3028 3027 3026 3024 3023 3021 3019 3017 3014 3012 3010 3009 3007 3005 3003 3001 2999 2998 2997 2995 2994 2994 2994 2993 2992 2990 2989 2987 2986 2984 2983 2982 2982 2981 2981 2981 2980 2980 2980
3026 3026 3024 3024 3023 3021 3020 3018 3015 3013 3011 3009 3007 3005 3003 3001 2999 2997 2995 2993 2992 2990 2989 2988 2987 2987 2986 2984 2982 2981 2979 2977 2975 2973 2972 2971 2971 2970 2970 2970 2971 2971
3022 3021 3021 3020 3019 3017 3016 3013 3011 3009 3007 3004 3002 3000 2998 2995 2993 2991 2989 2988 2986 2984 2983 2981 2980 2979 2978 2976 2974 2972 2970 2967 2965 2962 2960 2959 2958 2958 2958 2959 2960 2961
3018 3017 3017 3016 3015 3014 3012 3009 3007 3005 3002 3000 2997 2995 2992 2990 2988 2986 2984 2982 2980 2979 2977 2975 2973 2972 2970 2967 2965 2963 2961 2958 2955 2952 2949 2947 2947 2947 2947 2948 2949 2950
3014 3014 3014 3013 3011 3010 3007 3005 3003 3000 2997 2995 2993 2990 2987 2985 2983 2980 2978 2976 2975 2973 2971 2969 2966 2964 2962 2960 2957 2955 2952 2949 2946 2942 2940 2938 2938 2938 2938 2938 2940 2941
Wind_Speed
21 21 21 22 22 22 22 22 22 22 21 20 20 20 21 21 21 20 19 20 20 22 23 24 25 26 27 27 27 29 30 31 31 30 31 33 35 36 37 38 37 36
21 22 22 22 23 23 23 23 23 22 22 21 21 21 22 22 23 22 22 21 21 21 22 23 24 26 28 29 29 29 29 30 31 31 31 32 33 34 35 38 38 38
21 22 23 23 23 23 22 22 23 22 22 22 22 22 23 24 24 24 24 24 25 25 25 24 24 25 28 30 31 31 30 30 30 30 31 31 32 33 33 35 37 39
21 22 23 23 23 23 22 22 22 22 22 23 23 24 25 26 26 26 26 27 27 28 28 28 27 27 28 29 31 32 32 32 31 30 31 31 31 32 32 33 35 38
21 22 23 23 23 23 23 23 23 23 24 24 25 26 27 28 28 28 28 29 29 30 31 31 30 30 30 30 31 32 33 33 33 32 32 32 31 32 32 32 33 35
22 23 24 24 24 24 24 24 25 26 26 26 27 28 28 29 30 30 30 30 31 31 32 33 32 32 32 32 32 32 32 33 33 34 34 34 32 32 33 33 33 34
23 24 25 25 25 25 25 26 27 28 28 28 29 29 30 31 31 31 31 31 31 31 32 33 34 33 33 32 32 32 32 32 33 34 35 36 34 34 33 33 34 34
25 25 25 25 25 25 26 27 28 28 29 29 29 30 31 31 31 32 32 32 31 31 32 33 34 33 33 33 33 33 33 33 33 34 35 36 36 36 35 35 35 35
26 26 26 26 25 25 26 27 28 29 29 29 30 30 31 32 32 32 32 33 32 32 32 32 33 33 33 33 33 33 33 32 33 34 35 36 37 37 37 37 37 37
27 27 26 26 26 26 27 28 28 29 29 30 30 31 31 33 34 34 34 34 34 33 33 33 33 33 33 34 33 33 33 32 32 33 34 35 36 37 38 39 39 39
27 27 27 27 27 27 28 29 30 30 30 31 31 32 33 34 35 36 37 37 36 35 34 34 33 33 34 34 34 34 34 33 33 33 33 34 35 37 39 40 42 42
27 27 27 28 28 28 29 29 30 31 31 32 33 34 35 36 37 38 38 39 39 38 36 35 34 34 34 35 35 35 35 35 35 35 34 35 35 36 37 40 42 44
27 28 28 29 29 29 29 30 31 32 33 34 35 36 37 38 39 40 40 41 40 40 39 37 36 36 35 36 36 37 37 37 37 37 37 36 36 36 37 38 41 44
28 29 29 30 29 29 30 31 32 33 34 35 37 38 40 40 41 41 42 42 41 40 40 39 38 38 37 37 38 38 39 39 39 39 39 39 38 37 37 37 39 41
30 30 30 30 30 30 31 32 33 34 35 37 38 39 41 41 42 43 42 42 41 41 41 40 40 39 39 39 39 39 40 41 41 41 41 41 41 40 39 38 37 38
30 31 31 31 30 31 32 33 34 35 35 37 39 40 42 42 43 43 42 42 41 41 41 41 41 40 39 38 38 39 39 40 41 42 43 43 43 43 42 40 38 38
31 31 30 30 31 32 33 34 34 35 36 37 39 41 42 43 43 42 41 41 41 40 40 40 40 39 38 37 37 38 38 39 41 42 43 44 44 45 44 43 41 40
30 30 30 30 32 32 33 34 34 35 37 38 39 41 42 42 42 41 41 40 39 39 38 38 37 36 36 36 36 37 38 39 40 41 42 43 45 45 46 45 44 43
29 29 30 31 32 32 33 34 35 36 37 38 40 41 42 42 41 40 40 39 38 37 36 36 35 35 35 36 37 37 38 40 41 41 42 43 44 46 47 48 47 46
28 29 30 30 31 32 33 34 35 36 37 39 40 42 41 41 40 39 38 37 36 35 35 35 35 35 35 36 37 38 39 41 42 44 44 45 46 47 48 50 50 50
28 29 29 30 31 32 33 34 35 36 38 39 41 42 41 40 40 39 38 36 35 35 35 35 35 35 37 37 38 39 40 42 45 46 48 49 50 50 51 52 52 53
27 27 28 29 30 31 32 34 36 38 39 40 41 42 41 40 39 38 37 36 36 36 36 37 36 37 38 39 40 42 44 46 48 49 51 52 53 54 55 55 55 56
24 25 27 29 29 31 33 35 37 39 40 41 42 42 40 39 38 37 37 37 37 37 38 39 39 39 40 42 44 46 48 50 51 53 54 55 56 57 58 59 59 59
22 23 26 28 29 31 34 36 38 39 40 42 42 41 39 38 37 37 37 37 38 39 39 41 41 42 43 45 47 49 51 53 54 56 57 57 56 56 57 59 61 62
22 24 26 28 30 32 35 37 39 40 41 41 40 38 37 37 37 37 37 38 39 39 41 42 43 44 46 48 50 52 53 55 56 57 57 55 53 51 52 54 57 59
23 25 27 29 31 34 36 38 39 39 39 38 36 36 36 36 36 37 38 38 39 40 41 43 45 47 48 50 52 53 54 56 57 56 53 51 49 48 47 48 49 52
Wind_Direction
282 283 282 283 283 282 282 284 284 284 281 277 275 276 277 278 279 281 283 286 288 290 291 292 292 290 286 281 278 275 274 273 271 268 265 264 262 261 261 258 254 252
281 282 282 283 284 285 285 287 287 285 282 278 275 274 275 276 276 278 279 281 283 284 285 287 290 291 290 288 284 280 277 275 274 272 269 267 265 262 261 260 258 254
280 282 284 285 285 286 287 287 286 285 282 279 276 275 274 275 276 278 280 282 283 284 284 283 284 286 287 287 286 284 282 279 277 275 272 270 268 266 262 260 259 257
282 284 286 287 287 286 287 286 285 284 281 279 277 276 275 276 278 280 281 283 285 286 286 285 284 284 284 284 283 283 283 282 280 278 275 272 270 269 266 262 260 258
284 286 287 287 287 286 286 285 284 282 281 279 278 277 277 278 279 282 284 286 287 288 289 288 287 286 286 285 283 281 280 280 280 279 276 273 270 269 268 265 261 258
286 286 286 286 285 285 284 283 282 281 280 280 280 280 280 280 281 283 284 285 287 288 290 290 290 288 287 286 285 283 280 279 278 278 276 274 272 269 267 266 263 260
287 286 286 285 285 284 283 281 281 281 282 283 283 283 283 283 284 284 284 285 286 287 289 290 290 289 288 286 286 285 282 279 277 275 274 274 272 270 267 266 265 263
289 289 288 288 287 286 284 283 283 283 284 285 285 285 285 285 286 286 287 288 288 288 288 289 289 289 288 287 286 285 284 281 278 275 273 272 271 270 268 265 263 263
291 292 291 291 291 290 289 287 287 287 287 287 287 287 288 288 289 289 290 290 291 290 289 289 288 287 287 286 286 286 284 282 279 277 274 271 270 269 267 264 262 260
292 292 293 293 293 293 292 291 290 290 290 289 289 290 291 292 292 293 293 292 292 292 290 289 287 285 285 284 285 285 284 283 281 279 277 273 270 268 265 263 261 259
291 291 292 293 293 293 292 292 292 292 291 292 292 293 294 294 294 295 295 294 293 292 291 289 286 283 282 282 283 283 283 282 281 279 279 277 273 269 265 263 261 258
288 289 290 291 292 292 291 292 292 292 292 294 295 296 295 295 296 295 295 295 294 294 291 289 286 282 281 280 280 281 281 280 280 279 277 277 275 273 268 264 262 259
286 286 288 289 290 290 290 291 292 293 295 296 297 297 297 296 296 295 295 295 294 293 291 289 285 282 280 279 278 278 278 278 278 278 277 275 274 273 271 267 264 261
285 285 287 289 289 290 290 291 293 295 297 298 297 296 295 295 295 294 294 294 292 291 289 287 284 282 280 279 278 277 277 276 276 276 276 275 273 271 269 268 266 264
285 286 288 289 289 289 290 292 293 295 296 296 295 294 293 294 294 294 293 292 291 289 287 285 283 281 280 279 278 277 276 277 277 277 276 275 273 270 268 266 266 265
282 285 286 287 287 288 290 291 292 293 294 293 293 293 294 294 294 294 293 292 289 287 285 284 283 282 282 280 279 278 277 277 277 277 277 276 273 271 268 265 264 264
281 282 283 284 286 287 289 291 292 293 294 294 294 295 295 296 296 296 295 292 289 287 285 283 283 282 282 281 281 279 278 278 277 276 276 276 274 272 270 267 264 262
280 282 283 285 286 288 290 292 294 295 295 295 296 296 296 296 297 297 295 292 289 287 284 283 282 282 282 282 281 279 278 277 276 276 275 274 274 272 271 269 265 262
282 283 285 287 288 290 292 293 294 294 295 296 296 296 296 297 297 296 294 291 288 285 283 282 282 282 282 282 280 279 279 278 276 275 274 273 272 271 270 269 267 264
283 284 286 288 289 291 292 294 295 295 296 297 297 296 297 298 298 295 292 289 286 284 282 281 281 281 280 280 279 279 280 279 279 277 275 273 271 269 268 267 266 264
283 285 287 289 290 292 293 295 297 298 299 299 298 298 299 300 298 294 290 288 285 283 281 280 279 279 278 278 279 279 279 279 278 278 276 274 272 269 267 265 264 263
283 285 288 290 291 294 296 298 300 301 302 302 301 300 301 300 297 292 289 287 285 284 282 281 280 279 279 280 281 281 281 280 279 278 276 274 272 269 266 264 262 261
285 285 287 291 295 299 302 304 305 305 305 304 302 302 302 299 295 291 289 288 286 285 284 283 283 283 283 284 284 284 285 284 283 282 280 277 273 269 265 262 261 259
290 288 292 298 302 304 306 306 306 306 305 304 303 302 300 297 294 292 290 289 287 287 287 287 286 287 287 286 287 287 288 288 288 287 285 281 275 270 265 261 258 257
296 296 299 302 304 305 306 306 306 305 304 303 302 302 299 297 296 294 291 290 290 290 290 290 289 289 289 289 289 290 290 290 290 288 285 280 275 270 267 263 260 257
297 300 302 304 306 307 307 307 306 305 303 302 302 301 299 299 298 296 294 293 293 292 292 291 291 290 290 290 290 291 291 291 290 287 283 278 274 272 270 267 264 260